Regional Weather Roundup
Issued by NWS

Home | Current Version | Previous Version | Text Only | Print | Product List | Glossary On
Versions: 1 2 3 4 5 6 7 8 9 10 11 12 13 14 15 16 17 18 19 20 21 22 23 24 25 26 27 28 29 30 31 32 33 34 35 36 37 38 39 40 41 42 43 44 45 46 47 48 49 50
000
ASUS43 KMPX 210701
RWRMN
WEATHER ROUNDUP FOR MINNESOTA
NATIONAL WEATHER SERVICE TWIN CITIES/CHANHASSEN MN
200 AM CDT MON AUG 21 2017


NOTE: "FAIR" INDICATES FEW OR NO CLOUDS BELOW 12,000 FEET WITH NO
SIGNIFICANT WEATHER AND/OR OBSTRUCTIONS TO VISIBILITY. N/A MEANS
CURRENT SKY AND/OR WEATHER CONDITIONS ARE NOT AVAILABLE.

MNZ060>063-068>070-210800-
   Twin Cities Metro

CITY           SKY/WX    TMP DP  RH WIND       PRES   REMARKS
TWIN CITIES    PTCLDY    68  61  78 N7        30.00F
ST PAUL        PTCLDY    68  63  84 N5        30.00F
CRYSTAL        CLEAR     64  60  87 N6        29.99F
BLAINE         CLEAR     63  63 100 N7        30.01F
LAKEVILLE      CLEAR     66  66 100 N5        30.00F
EDEN PRAIRIE   CLEAR     68  63  84 N6        29.99F
SOUTH ST PAUL  CLEAR     69  59  71 N6        30.00F
LAKE ELMO      FAIR      64  63  94 N5        30.02F
$$
MNZ001>005-007-008-013>017-022>024-027-028-210800-
   Northwest Minnesota

CITY           SKY/WX    TMP DP  RH WIND       PRES   REMARKS
BEMIDJI        MOCLDY    50  48  93 CALM      30.05F
HALLOCK        PTCLDY    52  46  82 CALM      30.00F
ROSEAU         CLEAR     52  46  82 S3        30.02F
WARROAD        CLEAR     54  48  82 SW5       30.03S
CROOKSTON      CLOUDY    54  48  82 S5        30.03F
FOSSTON        PTCLDY    48  45  87 CALM      30.05S
DETROIT LAKES  PTCLDY    59  54  82 CALM      30.06F
MOORHEAD       CLOUDY    57  55  94 CALM      30.04S
PARK RAPIDS    MOCLDY    55  52  89 CALM      30.06S
MAHNOMEN       FAIR      57  53  84 S5        30.05S
$$
MNZ006-009>011-018-025>026-210800-
   North Central Minnesota

CITY           SKY/WX    TMP DP  RH WIND       PRES   REMARKS
BAUDETTE       CLEAR     50  46  86 CALM      30.02F
FLAG ISLAND    CLEAR     64  46  52 SW5       29.99S HAZE
INTL FALLS     CLEAR     46  44  93 CALM      30.03S
WASKISH        PTCLDY    48  46  93 CALM      30.04F
BIG FORK       CLOUDY    48  46  93 CALM      30.05S
LONGVILLE      PTCLDY    48  48 100 CALM      30.05S
GRAND RAPIDS   PTCLDY    54  53  97 N3        30.06F FOG
CRANE LAKE     CLEAR     45  45 100 CALM      30.05S
ORR            PTCLDY    50  46  87 CALM      30.03R
COOK           CLOUDY    50  48  93 CALM      30.05S
WALKER         FAIR      55  52  91 CALM      30.06R
$$
MNZ012-019>021-037-210800-
   Northeast Minnesota

CITY           SKY/WX    TMP DP  RH WIND       PRES   REMARKS
DULUTH         CLEAR     56  53  90 NW5       30.04F
ELY            CLEAR     48  48 100 CALM      30.04S
HIBBING        CLOUDY    47  47 100 CALM      30.05R
EVELETH        PTCLDY    50  47  90 CALM      30.06R
DULUTH HARBOR  CLEAR     61  57  88 S3        30.03F
TWO HARBORS    CLEAR     59  54  82 CALM      30.02R
SILVER BAY     CLEAR     52  52 100 CALM      30.02R
GRAND MARAIS     N/A     56  53  90 SW5       29.99R
G MARAIS ARPRT CLEAR     57  46  67 NW3       30.03S
$$
MNZ029>031-032-039>041-046>048-054>057-064-210800-
   West Central Minnesota

CITY           SKY/WX    TMP DP  RH WIND       PRES   REMARKS
FERGUS FALLS   CLOUDY    61  61 100 CALM      30.04S
WHEATON        PTCLDY    57  55  94 CALM      30.04F
MORRIS         CLEAR     57  55  94 CALM      30.02F
ALEXANDRIA     CLOUDY    62  56  80 E6        30.04
ELBOW LAKE     MOCLDY    62  58  85 NE7       30.03F
WADENA         CLOUDY    55  55 100 CALM      30.06R
GLENWOOD       CLOUDY    57  55  94 N3        30.04F
APPLETON       CLEAR     54  52  94 N3        30.01F
BENSON         FOG       54  52  94 CALM      30.04F VSB<1/4
ORTONVILLE     CLEAR     55  54  94 MISG      30.02F
MADISON        CLEAR     59  59 100 CALM      30.02F
WILLMAR        FAIR      61  59  94 CALM      30.04F
$$
MNZ033>034-036-042>043-049>051-058-059-210800-
   Central Minnesota

CITY           SKY/WX    TMP DP  RH WIND       PRES   REMARKS
ST CLOUD       CLOUDY    59  59 100 CALM      30.02F
SAUK CENTRE    FAIR      60  56  87 CALM      30.04F
PAYNESVILLE    PTCLDY    58  57  97 CALM      30.04F
AITKIN         CLOUDY    48  46  93 CALM      30.04S FOG
PINE RIVER     PTCLDY    48  48 100 CALM      30.09S
BRAINERD       MOCLDY    54  53  97 CALM      30.06R
STAPLES        PTCLDY    55  54  94 CALM      30.06S
LONG PRAIRIE   MOCLDY    59  55  88 CALM      30.06S
LITTLE FALLS   LGT RAIN  57  55  94 CALM      30.05S
LITCHFIELD     CLEAR     63  61  94 CALM      30.03F
BUFFALO        CLEAR     60  58  91 CALM      30.02F
MAPLE LAKE     CLEAR     60  60  98 CALM      30.03F
HUTCHINSON     CLEAR     62  60  96 CALM      30.03F
$$
MNZ037-044-045-052-053-210800-
   East Central Minnesota

CITY           SKY/WX    TMP DP  RH WIND       PRES   REMARKS
PRINCETON      CLEAR     57  55  94 CALM      30.03F FOG
MORA           PTCLDY    54  52  94 CALM      30.06F FOG
CAMBRIDGE      CLEAR     61  59  94 CALM      30.03F FOG
RUSH CITY      MOCLDY    55  55  97 N3        30.04F
MOOSE LAKE     CLEAR     52  50  93 CALM      30.03S
HINCKLEY       FAIR      52  52 100 CALM      30.06R
CLOQUET        PTCLDY    54  50  87 CALM      30.05S
MCGREGOR       CLEAR     50  48  93 CALM      30.06R
$$
MNZ071>073-080-081-089-090-097-098-210800-
   Southwest Minnesota

CITY           SKY/WX    TMP DP  RH WIND       PRES   REMARKS
MONTEVIDEO     CLEAR     57  54  88 NE5       30.02F
GRANITE FALLS  PTCLDY    61  60  97 N5        30.03S
CANBY          CLEAR     58  57  96 CALM      30.02F
MARSHALL       PTCLDY    60  59  96 CALM      30.03S
REDWOOD FALLS  CLEAR     63  60  90 CALM      30.01F
OLIVIA         CLEAR     57  55  94 NE3       30.01F
PIPESTONE      PTCLDY    64  61  88 E7        30.02R
WINDOM         CLOUDY    66  64  94 NE5       30.03R
WORTHINGTON    CLOUDY    65  64  97 NE9       30.02S
JACKSON        CLOUDY    66  64  94 CALM      30.02S
TRACY          CLEAR     63  63  98 CALM      30.03R
SLAYTON        PTCLDY    63  59  88 CALM      30.04R
$$
MNZ065>067-074>077-082>085-091>093-210800-
   South Central Minnesota

CITY           SKY/WX    TMP DP  RH WIND       PRES   REMARKS
MANKATO        MOCLDY    68  66  93 N7        30.01R
NEW ULM        CLOUDY    66  63  88 NE6       30.00R
ST JAMES       MOCLDY    66  64  94 W3        30.02R
FAIRMONT       CLOUDY    67  66  97 NE3       30.00R
GLENCOE        CLEAR     65  64  97 N3        30.00F
FARIBAULT      CLEAR     68  66  94 CALM      30.01R
OWATONNA       CLEAR     68  66  94 SE6       30.01R
WASECA         CLEAR     70  66  88 E5        30.01S
ALBERT LEA     CLOUDY    70  68  94 CALM      30.00F
$$
MNZ078>079-086>088-094>096-210800-
   Southeast Minnesota

CITY           SKY/WX    TMP DP  RH WIND       PRES   REMARKS
ROCHESTER      PTCLDY    66  66 100 S6        30.01F
RED WING       CLEAR     70  63  78 CALM      29.97F
STANTON        CLEAR     66  65  94 CALM      29.99R FOG
DODGE CENTER   CLEAR     66  63  88 CALM      30.01R
WINONA         MOCLDY    68  66  94 CALM      30.01S FOG
AUSTIN         CLOUDY    66  64  94 CALM      30.01S
PRESTON        PTCLDY    66  64  91 CALM      30.03R
$$
ABBREVIATIONS USED IN REMARKS
   TC - TEMPERATURES IN CELSIUS
  WCI - WIND CHILL INDEX
   HX - HEAT INDEX
  VSB - VISIBILITY
$$




USA.gov is the U.S. government's official web portal to all federal, state and local government web resources and services.